Annapolis Naval Academy, MD

6:21 PM EDT on June 23, 2017 (GMT -0400)
Annapolis Naval Academy

Weather History for KNAK - March, 2014

Change the Weather History Date:

Saturday, March 29, 2014

  Actual Average (KBWI) Record (KBWI)
Temperature  
Mean Temperature 52 °F -  
Max Temperature 57 °F 61 °F 90 °F (1945)
Min Temperature 46 °F 39 °F 18 °F (1923)
Degree Days  
Heating Degree Days 14    
Growing Degree Days 2 (Base 50)    
Moisture  
Dew Point 51 °F    
Average Humidity 98    
Maximum Humidity 100    
Minimum Humidity 86    
Precipitation  
Precipitation 1.14 in - - ()
Sea Level Pressure  
Sea Level Pressure 29.85 in    
Wind  
Wind Speed 5 mph (ESE)    
Max Wind Speed 18 mph    
Max Gust Speed 25 mph    
Visibility 2 miles    
Events Fog , Rain    
Averages and records for this station are not official NWS values.
T = Trace of Precipitation, MM = Missing Value Source: NWS Daily Summary

Daily Weather History Graph

Daily Weather History Graph

Search for Another Location

Airport or City:

Trip Planner

Search our weather history database for the weather conditions in past years. The results will help you decide how hot, cold, wet, or windy it might be!

Date:

Astronomy

Mar. 29, 2014 Rise Set
Actual Time 6:55 AM EDT 7:26 PM EDT
Civil Twilight 6:28 AM EDT 7:53 PM EDT
Nautical Twilight 5:56 AM EDT 8:25 PM EDT
Astronomical Twilight 5:24 AM EDT 8:57 PM EDT
Moon 6:01 AM EDT (3/29) 6:29 PM EDT (3/29)
Length of Visible Light 13h 25m
Length of Day
12h 31m
Waning Crescent, 2% of the Moon is Illuminated
Mar 29
Waning Crescent
Mar 30
New
Apr 7
First Quarter
Apr 15
Full
Apr 22
Last Quarter

Hourly Weather History & Observations

Time (EDT) Temp. Dew Point Humidity Pressure Visibility Wind Dir Wind Speed Gust Speed Precip Events Conditions
12:54 AM 48.0 °F 44.1 °F 86% 30.10 in 10.0 mi ESE 5.8 mph - N/A   Overcast
1:54 AM 46.9 °F 44.1 °F 90% 30.11 in 10.0 mi SE 4.6 mph - N/A   Clear
2:54 AM 46.9 °F 45.0 °F 93% 30.10 in 10.0 mi ESE 5.8 mph - N/A   Overcast
3:34 AM 48.9 °F 48.0 °F 97% 30.08 in 7.0 mi ESE 6.9 mph - N/A   Overcast
3:54 AM 46.9 °F 46.0 °F 97% 30.09 in 2.5 mi ESE 3.5 mph - N/A   Overcast
4:09 AM 48.0 °F 46.9 °F 96% 30.07 in 3.0 mi ESE 3.5 mph - N/A   Overcast
4:29 AM 48.9 °F 46.9 °F 93% 30.07 in 2.0 mi East 3.5 mph - N/A   Overcast
4:39 AM 48.9 °F 48.0 °F 97% 30.07 in 3.0 mi ESE 3.5 mph - N/A   Overcast
4:49 AM 48.2 °F 48.2 °F 100% 30.07 in 1.5 mi ESE 4.6 mph - N/A   Overcast
4:54 AM 48.9 °F 48.0 °F 97% 30.07 in 0.2 mi ESE 4.6 mph - N/A Fog Fog
5:03 AM 48.0 °F 48.0 °F 100% 30.07 in 0.2 mi ESE 3.5 mph - N/A Fog Fog
5:12 AM 48.9 °F 48.0 °F 97% 30.07 in 0.2 mi Calm Calm - 0.01 in Fog , Rain Light Rain
5:30 AM 48.9 °F 48.0 °F 97% 30.07 in 0.5 mi Variable 3.5 mph - 0.01 in Fog , Rain Light Rain
5:41 AM 48.9 °F 48.9 °F 100% 30.07 in 0.2 mi SSE 3.5 mph - 0.02 in Fog , Rain Light Rain
5:54 AM 48.0 °F 48.0 °F 100% 30.07 in 0.2 mi South 3.5 mph - 0.02 in Fog , Rain Light Rain
6:14 AM 53.1 °F 52.0 °F 96% 30.07 in 1.0 mi SSE 8.1 mph - 0.01 in Rain Light Rain
6:22 AM 48.9 °F 48.9 °F 100% 30.07 in 0.2 mi SE 3.5 mph - 0.02 in Fog , Rain Light Rain
6:54 AM 51.1 °F 50.0 °F 96% 30.08 in 0.5 mi Calm Calm - 0.06 in Fog , Rain Light Rain
7:28 AM 50.0 °F 50.0 °F 100% 30.07 in 0.2 mi Calm Calm - 0.04 in Fog , Rain Light Rain
7:54 AM 51.1 °F 51.1 °F 100% 30.07 in 0.2 mi SE 5.8 mph - 0.06 in Fog , Rain Light Rain
8:54 AM 53.1 °F 53.1 °F 100% 30.06 in 0.2 mi Calm Calm - 0.01 in Fog Fog
9:54 AM 55.0 °F 54.0 °F 96% 30.04 in 0.2 mi Calm Calm - 0.03 in Fog , Rain Light Rain
10:03 AM 55.0 °F 55.0 °F 100% 30.03 in 0.5 mi Calm Calm - 0.00 in Fog , Rain Light Rain
10:13 AM 53.1 °F 53.1 °F 100% 30.03 in 0.2 mi Calm Calm - 0.01 in Fog , Rain Light Rain
10:54 AM 53.1 °F 52.0 °F 96% 30.02 in 0.2 mi SSE 3.5 mph - 0.02 in Fog Fog
11:54 AM 53.1 °F 52.0 °F 96% 29.99 in 0.2 mi Calm Calm - 0.01 in Fog Fog
12:29 PM 51.1 °F 51.1 °F 100% 29.97 in 0.5 mi NW 5.8 mph - 0.03 in Fog , Rain Light Rain
12:54 PM 51.1 °F 51.1 °F 100% 29.96 in 0.2 mi NNW 4.6 mph - 0.06 in Fog , Rain Light Rain
1:19 PM 50.0 °F 48.9 °F 96% 29.94 in 0.8 mi North 5.8 mph - 0.03 in Rain Light Rain
1:26 PM 50.0 °F 48.9 °F 96% 29.93 in 1.0 mi NNW 5.8 mph - 0.04 in Rain Light Rain
1:54 PM 52.0 °F 51.1 °F 97% 29.92 in 0.5 mi NNW 3.5 mph - 0.08 in Fog , Rain Light Rain
2:07 PM 51.1 °F 51.1 °F 100% 29.90 in 0.2 mi NNW 4.6 mph - 0.02 in Fog , Rain Light Rain
2:20 PM 51.1 °F 51.1 °F 100% 29.89 in 1.0 mi North 3.5 mph - 0.04 in Rain Light Rain
2:31 PM 51.1 °F 51.1 °F 100% 29.88 in 0.8 mi North 3.5 mph - 0.04 in Rain Light Rain
2:54 PM 50.0 °F 50.0 °F 100% 29.87 in 0.5 mi NNW 4.6 mph - 0.05 in Fog , Rain Light Rain
3:30 PM 48.9 °F 48.9 °F 100% 29.84 in 2.0 mi Calm Calm - 0.03 in   Overcast
3:40 PM 51.1 °F 50.0 °F 96% 29.84 in 3.0 mi Calm Calm - 0.03 in Rain Light Rain
3:46 PM 51.1 °F 50.0 °F 96% 29.83 in 1.8 mi North 3.5 mph - 0.04 in Rain Light Rain
3:54 PM 50.0 °F 50.0 °F 100% 29.83 in 1.5 mi NNE 3.5 mph - 0.04 in Rain Light Rain
4:06 PM 51.1 °F 50.0 °F 96% 29.81 in 0.2 mi Calm Calm - 0.02 in Fog , Rain Light Rain
4:19 PM 51.1 °F 51.1 °F 100% 29.80 in 0.5 mi Calm Calm - 0.04 in Fog , Rain Light Rain
4:43 PM 53.1 °F 52.0 °F 96% 29.78 in 1.0 mi NE 3.5 mph - 0.06 in Rain Light Rain
4:54 PM 52.0 °F 52.0 °F 100% 29.78 in 0.8 mi Calm Calm - 0.07 in Rain Light Rain
5:08 PM 52.0 °F 51.1 °F 97% 29.77 in 1.2 mi Variable 3.5 mph - 0.04 in Rain Light Rain
5:25 PM 52.0 °F 51.1 °F 97% 29.75 in 2.5 mi Calm Calm - 0.06 in Rain Light Rain
5:41 PM 53.1 °F 52.0 °F 96% 29.74 in 1.2 mi East 4.6 mph - 0.11 in Rain Light Rain
5:50 PM 53.6 °F 53.6 °F 100% 29.74 in 0.8 mi Calm Calm - 0.13 in Rain Light Rain
5:54 PM 53.1 °F 53.1 °F 100% 29.75 in 1.0 mi ENE 4.6 mph - 0.13 in Rain Light Rain
6:09 PM 53.1 °F 53.1 °F 100% 29.73 in 2.0 mi ENE 10.4 mph - 0.04 in Rain Light Rain
6:18 PM 53.1 °F 53.1 °F 100% 29.73 in 1.5 mi ENE 8.1 mph - 0.10 in Rain Rain
6:32 PM 53.1 °F 52.0 °F 96% 29.69 in 2.5 mi ENE 18.4 mph - 0.13 in Rain Light Rain
6:47 PM 53.1 °F 52.0 °F 96% 29.70 in 4.0 mi ENE 13.8 mph - 0.15 in Rain Light Rain
6:54 PM 53.1 °F 52.0 °F 96% 29.71 in 4.0 mi ENE 11.5 mph - 0.16 in Rain Light Rain
7:03 PM 52.0 °F 52.0 °F 100% 29.70 in 1.8 mi ENE 12.7 mph - 0.05 in Rain Rain
7:26 PM 53.1 °F 53.1 °F 100% 29.69 in 2.0 mi Calm Calm - 0.14 in Rain Light Rain
7:31 PM 54.0 °F 53.1 °F 97% 29.69 in 3.0 mi Calm Calm - 0.15 in Rain Light Rain
7:34 PM 53.1 °F 53.1 °F 100% 29.68 in 2.0 mi SSE 3.5 mph - 0.15 in Rain Light Rain
7:41 PM 53.1 °F 52.0 °F 96% 29.68 in 1.2 mi SE 8.1 mph - 0.15 in Rain Light Rain
7:49 PM 55.4 °F 55.4 °F 100% 29.68 in 3.0 mi South 9.2 mph - 0.15 in Rain Light Rain
7:54 PM 57.0 °F 55.9 °F 96% 29.68 in 6.0 mi South 13.8 mph - 0.15 in   Overcast
8:05 PM 55.9 °F 55.0 °F 97% 29.65 in 2.5 mi SSE 13.8 mph - N/A   Overcast
8:13 PM 55.0 °F 54.0 °F 96% 29.65 in 3.0 mi South 11.5 mph - 0.01 in Rain Light Rain
8:36 PM 53.1 °F 52.0 °F 96% 29.63 in 1.2 mi SE 4.6 mph - 0.07 in Rain Rain
8:44 PM 48.9 °F 48.0 °F 97% 29.63 in 0.5 mi SSE 4.6 mph - 0.17 in Fog , Rain Heavy Rain
8:54 PM 51.1 °F 50.0 °F 96% 29.63 in 0.8 mi SW 4.6 mph - 0.18 in Rain Light Rain
9:01 PM 53.1 °F 53.1 °F 100% 29.62 in 2.0 mi South 5.8 mph - 0.00 in Rain Light Rain
9:25 PM 54.0 °F 53.1 °F 97% 29.61 in 3.0 mi SSE 8.1 mph - 0.00 in   Overcast
9:54 PM 55.9 °F 55.0 °F 97% 29.60 in 2.0 mi South 16.1 mph - 0.01 in   Overcast
10:11 PM 55.0 °F 54.0 °F 96% 29.59 in 3.0 mi South 17.3 mph 25.3 mph N/A   Overcast
10:22 PM 55.0 °F 54.0 °F 96% 29.59 in 2.5 mi South 18.4 mph 25.3 mph N/A   Overcast
10:33 PM 55.0 °F 54.0 °F 96% 29.58 in 1.5 mi South 15.0 mph - N/A   Overcast
10:54 PM 53.1 °F 53.1 °F 100% 29.58 in 1.0 mi South 9.2 mph - N/A   Overcast
11:09 PM 53.1 °F 52.0 °F 96% 29.57 in 0.8 mi SSE 13.8 mph - N/A   Mist
11:54 PM 51.1 °F 51.1 °F 100% 29.57 in 0.5 mi South 8.1 mph - N/A Fog Fog